Home > Weather > Pereira > Past weeks

Flag for Colombia Weather for the Past 2 Weeks in Pereira, Colombia

Now
66 °F

Thunderstorms. Passing clouds.


Feels Like: 66 °F
Forecast: 62 / 84 °F
Wind: 5 mph from Southeast

Location: Pereira / Matecana

Current Time: May 6, 2016 at 3:08:41 AM

Latest Report: May 6, 2016 at 1:00 AM


Visibility: 3 mi

Pressure: 30.06 "Hg (25.44 "Hg at 1427m altitude)

Humidity: 100%

Dew Point: 66 °F

Location of PereiraLocation

Historic Weather in Pereira — Graph

°F

Pereira Temperature Yesterday

Maximum temperature yesterday: 84 °F (at 12:00 PM)
Minimum temperature yesterday: 66 °F (at 5:00 AM)
Average temperature yesterday: 74 °F

High & Low Weather Summary for the Past Weeks

 TemperatureHumidityPressure
High88 °F (Apr 21, 4:00 PM)100% (Apr 24, 9:00 AM)30.18 "Hg (Apr 24, 9:00 AM)
Low64 °F (Apr 25, 6:00 AM)49% (Apr 21, 4:00 PM)29.91 "Hg (Apr 21, 4:00 PM)
Average72 °F81%30.05 "Hg
* Reported Apr 21 5:00 AM — May 6 1:00 AM, Pereira, Weather by CustomWeather, © 2016

Note: Actual official high and low records may vary slightly from our data, if they occured in-between our weather recording intervals... More about our weather records

Advertising

Pereira Weather History for the Previous 24 Hours

Scroll right to see more
 ConditionsComfort  
Time TempWeatherWind HumidityBarometerVisibility
1:00 AM
Fri, May 6
66 °FThunderstorms. Passing clouds.5 mph100%30.06 "Hg3 mi
12:00 AM70 °FFog.6 mph88%30.06 "Hg6 mi
11:00 PM
Thu, May 5
68 °FFog.3 mph94%30.06 "Hg6 mi
10:00 PM68 °FFog.6 mph94%30.07 "Hg6 mi
9:00 PM68 °FPassing clouds.7 mph94%30.07 "HgN/A
8:00 PM68 °FThunderstorms. Passing clouds.9 mph94%30.06 "Hg4 mi
7:00 PM68 °FThunderstorms. Partly cloudy.6 mph94%30.03 "Hg4 mi
6:00 PM70 °FStrong thunderstorms. Partly sunny.12 mph94%29.97 "Hg1 mi
5:00 PM81 °FScattered showers. Scattered clouds.2 mph62%29.95 "HgN/A
4:00 PM81 °FScattered clouds.5 mph62%29.94 "HgN/A
3:00 PM79 °FScattered clouds.8 mph70%29.97 "HgN/A
2:00 PM81 °FScattered clouds.3 mph62%30.00 "HgN/A
1:00 PM81 °FScattered clouds.3 mph66%30.03 "HgN/A
12:00 PM84 °FScattered clouds.6 mph58%30.06 "HgN/A
11:00 AM81 °FPassing clouds.6 mph66%30.08 "HgN/A
10:00 AM79 °FPassing clouds.5 mph65%30.10 "HgN/A
9:00 AM75 °FScattered clouds.6 mph74%30.09 "HgN/A
8:00 AM72 °FScattered clouds.5 mph78%30.09 "HgN/A
7:00 AM66 °FScattered clouds.6 mph88%30.07 "HgN/A
6:00 AM68 °FScattered clouds.7 mph88%30.07 "HgN/A
5:00 AM66 °FPassing clouds.5 mph88%30.05 "HgN/A
Weather by CustomWeather, © 2016

See weather overviewHow to use our weather pages